User: anonymous
Location: Waldport
(44.4270°N, 124.0680°W)
Time: 04:49:59
(UTC-07:00)
Language:

Cosmos 1570 Rocket - Orbit

View from above orbital plane
View from above orbital plane
View from above satellite
View from above satellite

Ground track
Ground track

The orbit data is extracted from the following two-line orbital elements,

1 15032U 84056B   14272.08600044  .00000421  00000-0  15831-3 0  5031
2 15032 074.0700 089.5040 0016786 144.3635 354.7618 14.34410878584653
Epoch (UTC): 29 September 2014 02:03:50
Eccentricity: 0.0016786
inclination: 74.0700°
perigee height: 765 km
apogee height: 789 km
right ascension of ascending node: 89.5040°
argument of perigee: 144.3635°
revolutions per day: 14.34410878
mean anomaly at epoch: 354.7618°
orbit number at epoch: 58465

The dashed part of the orbit path shows where the satellite is in the earth's shadow,  

DLR